Regional Weather Roundup
Issued by NWS

Home | Current Version | Previous Version | Text Only | Print | Product List | Glossary On
Versions: 1 2 3 4 5 6 7 8 9 10 11 12 13 14 15 16 17 18 19 20 21 22 23 24 25 26 27 28 29 30 31 32 33 34 35 36 37 38 39 40 41 42 43 44 45 46 47 48 49 50
898
ASUS44 KFWD 292115
RWRTX
NORTH TEXAS HOURLY WEATHER ROUNDUP
NATIONAL WEATHER SERVICE FORT WORTH TX
400 PM CDT FRI APR 29 2016

NOTE: "FAIR" INDICATES FEW OR NO CLOUDS BELOW 12,000 FEET WITH NO
SIGNIFICANT WEATHER AND/OR OBSTRUCTIONS TO VISIBILITY.

TXZ118-119-292200-
DALLAS/FORT WORTH METROPLEX

CITY           SKY/WX    TMP DP  RH WIND       PRES   REMARKS
DFW AIRPORT    CLOUDY    83  73  72 S10       29.56F HAZE
DALLAS LOVE    CLOUDY    81  73  76 SE16      29.57F HAZE
FTW MEACHAM    CLOUDY    82  72  71 SW3       29.56F
DAL-EXECUTIVE  CLOUDY    78  72  81 S12G18    29.58S HAZE
FTW-ALLIANCE   CLOUDY    80  73  79 S6        29.56F HAZE
FTW-NAS-JRB    CLOUDY    80  72  76 S9        29.57S THUNDER
FTW-SPINKS     TSTM      81  73  78 S7        29.58F
ARLINGTON      CLOUDY    82  74  76 S12       29.58R
GRAND PRAIRIE  MOSUNNY   81  73  78 S8        29.58F FOG
ADDISON        PTSUNNY   81  75  83 S8G16     29.58F HAZE
MESQUITE       CLOUDY    75  72  88 SE14G21   29.60F FOG
LANCASTER      CLOUDY    77  71  82 S14G20    29.59F HAZE
$$

TXZ091>094-102>105-117-120-121-131>134-292200-
NORTH CENTRAL TEXAS

CITY           SKY/WX    TMP DP  RH WIND       PRES   REMARKS
SHRMAN/DENISON CLOUDY    71  65  82 E10       29.60S
GAINESVILLE    DRIZZLE   76  71  85 S8        29.58F
BOWIE          CLOUDY    79  70  74 S7        29.56F
BRIDGEPORT     LGT RAIN  77  73  86 S9        29.56F
DECATUR        CLOUDY    77  68  72 SE8       29.58F
DENTON         CLOUDY    77  71  82 NW7       29.57F
MCKINNEY       CLOUDY    77  74  90 SE12      29.58F FOG
GREENVILLE     TSTM      72  68  88 SE10      29.62F
ROCKWALL       CLOUDY    75  72  89 S12G20    29.60S
TERRELL        TSTM      73  71  93 S20       29.62S FOG
WAXAHACHIE     CLOUDY    78  74  88 S14       29.60F FOG
CLEBURNE       TSTM      79  77  94 SW9       29.61S
GRANBURY       CLOUDY    74  69  82 SW7       29.57F
$$

TXZ083>090-098>101-113>116-127>130-139>142-154-155-292200-
WESTERN NORTH TEXAS

CITY           SKY/WX    TMP DP  RH WIND       PRES   REMARKS
WICHITA FALLS  MOSUNNY   85  66  53 W23G30    29.53S
WF-KICKAPOO    MOSUNNY   89  62  40 W14G30    29.54R
VERNON         SUNNY     76  59  56 N20G25    29.60S
ABILENE        SUNNY     85  45  24 W15G28    29.60F
ABILENE-DYESS  SUNNY     85  47  26 W18G25    29.59F
BRECKENRIDGE   SUNNY     90  46  21 W12G17    29.57F HAZE
GRAHAM         CLOUDY    84  66  53 CALM      29.54F
MINERAL WELLS  CLOUDY    77  70  79 S12       29.57F
STEPHENVILLE   CLOUDY    72  67  83 CALM      29.63F
COMANCHE       CLOUDY    74  68  81 NW6       29.62S THUNDER
BROWNWOOD      CLOUDY    73  72  94 NW6       29.62R FOG
COLEMAN        CLOUDY    87  58  36 W10G16    29.60F
$$

TXZ143>147-156>162-174-175-292200-
CENTRAL TEXAS

CITY           SKY/WX    TMP DP  RH WIND       PRES   REMARKS
WACO           CLOUDY    80  75  84 S18       29.58F HAZE
WACO-TSTC      CLOUDY    79  73  83 S15       29.59F HAZE
WACO-MCGREGOR  CLOUDY    81  76  84 S20       29.58F
HILLSBORO      CLOUDY    77  73  85 S15G24    29.59F
CORSICANA      CLOUDY    73  68  84 S6        29.62F
MEXIA          CLOUDY    71  70  98 S7        29.61F
HEARNE         CLOUDY    82  72  71 SE13G20   29.60F THUNDER
CAMERON        CLOUDY    83  72  69 S14G24    29.60F
TEMPLE         CLOUDY    80  74  81 S25G31    29.58F
KILLEEN        PTSUNNY   81  75  83 SE15G25   29.57F
KILLEEN-SKYLRK CLOUDY    81  75  82 S17G29    29.59F
FORT HOOD      PTSUNNY   79  75  89 S17G24    29.56F
GATESVILLE     MOSUNNY   79  75  89 MISG      29.60F
HAMILTON       CLOUDY    83  70  64 SW14G22   29.59F HAZE
LAMPASAS       MOSUNNY   84  73  71 S10G17    29.57F HX  90
$$

TXZ095>097-106>112-122>126-135>138-148>153-164>167-292200-
EAST TEXAS

CITY           SKY/WX    TMP DP  RH WIND       PRES   REMARKS
PARIS          CLOUDY    68  61  77 SE15      29.66F THUNDER
SULPHUR SPRNGS TSTM      69  69  99 SE5       29.68R VSB 1
MOUNT PLEASANT CLOUDY    71  70  99 SE9G17    29.67F
GILMER         TSTM      71  69  95 E5        29.69R
MINEOLA        HVY RAIN  72  70  94 E3        29.65F
TYLER          TSTM      75  72  90 SE5       29.64F FOG
LONGVIEW       TSTM      74  71  91 E10       29.65F
MARSHALL       CLOUDY    73  69  89 E10G17    29.70F
ATHENS         TSTM      72  72 100 CALM      29.63F
PALESTINE      RAIN      75  72  90 S3        29.65F
JACKSONVILLE   CLOUDY    77  69  76 S7        29.68F
HENDERSON      CLOUDY    78  69  73 MISG      29.67F
CENTER         MOCLDY    82  70  67 SE10      29.69F
NACOGDOCHES    CLOUDY    79  70  73 S10G16    29.68S
LUFKIN         CLOUDY    80  69  69 SE14G21   29.67F
$$

SUPPLEMENTAL OBSERVATIONS (CENTRAL)

CITY           SKY/WX    TMP DP  RH WIND       PRES   REMARKS
LAKE TEXOMA      N/A     73  70  88 E13         N/A
PAT MAYSE LAKE   N/A     70  68  94 E10         N/A
GREENVILLE       N/A     70  66  88 SE10        N/A
CEDAR HILL       N/A     79  73  83 S10         N/A
ATHENS           N/A     72  68  88 S5G17       N/A
LAKE LIMESTONE   N/A     79  75  89 S5          N/A
MCGREGOR         N/A     81  73  78 S18G26      N/A
TEMPLE           N/A     82  73  74 S23         N/A
$$

SUPPLEMENTAL OBSERVATIONS (WEST)

CITY           SKY/WX    TMP DP  RH WIND       PRES   REMARKS
MILLERS CREEK    N/A     88  48  25 NW17G25     N/A
POSSUM KINGDOM   N/A    N/A N/A N/A SW10G20     N/A
GRANBURY         N/A     73  66  78 SW8         N/A
COMANCHE         N/A     73  68  83 NW7         N/A
HAMBY            N/A     86  45  23 NW16G23     N/A
$$

SUPPLEMENTAL OBSERVATIONS (EAST)

CITY           SKY/WX    TMP DP  RH WIND       PRES   REMARKS
CADDO LAKE       N/A     73  70  88 E3          N/A
LUFKIN           N/A     81  70  69 MISG        N/A
$$

SUPPLEMENTAL OBSERVATIONS ARE A COLLECTION OF AUTOMATED INSTRUMENTS
THAT ARE MAINTAINED BY A VARIETY OF FEDERAL AND STATE AGENCIES.
CERTAIN ELEMENTS...SUCH AS HUMIDITY VALUES AND SUSTAINED WIND
SPEEDS...MAY BE APPROXIMATED.





USA.gov is the U.S. government's official web portal to all federal, state and local government web resources and services.